Temp
-13 -13 -13 -13 -13 -13 -13 -13 -13 -13 -13 -13 -13 -14 -13 -14 -14 -15 -15 -15 -15 -15 -16 -16 -17 -17 -18
-13 -13 -13 -13 -13 -13 -13 -13 -13 -13 -14 -14 -14 -14 -14 -15 -15 -15 -16 -16 -16 -16 -17 -17 -18 -18 -18
-13 -13 -14 -13 -13 -13 -13 -13 -14 -14 -14 -14 -14 -14 -15 -15 -16 -16 -16 -16 -16 -17 -18 -18 -18 -18 -18
-13 -14 -14 -14 -13 -14 -14 -14 -14 -14 -14 -15 -15 -15 -16 -16 -16 -17 -17 -17 -17 -18 -18 -19 -19 -18 -18
-14 -14 -14 -14 -14 -14 -14 -14 -15 -15 -14 -16 -15 -16 -16 -17 -17 -17 -18 -18 -18 -19 -19 -19 -19 -19 -19
-14 -14 -15 -14 -14 -14 -14 -14 -15 -15 -14 -16 -16 -16 -16 -17 -17 -18 -18 -18 -19 -19 -19 -19 -18 -18 -19
-15 -15 -15 -15 -15 -14 -15 -15 -15 -15 -14 -15 -16 -16 -17 -17 -17 -18 -18 -18 -19 -19 -19 -18 -19 -19 -19
-15 -15 -15 -15 -15 -15 -15 -15 -15 -16 -15 -15 -16 -16 -17 -17 -18 -19 -19 -19 -19 -19 -19 -19 -19 -19 -20
-16 -16 -16 -15 -15 -15 -15 -15 -15 -16 -16 -16 -16 -16 -17 -17 -18 -19 -19 -19 -19 -19 -19 -19 -20 -20 -20
-16 -16 -16 -16 -15 -15 -15 -15 -16 -17 -17 -16 -17 -17 -16 -17 -18 -19 -19 -19 -19 -19 -19 -19 -21 -21 -22
-16 -16 -16 -16 -16 -16 -16 -16 -17 -17 -17 -17 -17 -17 -17 -17 -18 -19 -19 -19 -19 -20 -19 -20 -22 -23 -22
-17 -17 -16 -16 -16 -16 -16 -17 -17 -17 -17 -18 -18 -18 -18 -18 -19 -19 -19 -20 -20 -20 -19 -20 -23 -23 -23
-17 -16 -16 -16 -17 -17 -17 -17 -18 -18 -18 -18 -18 -19 -19 -19 -19 -20 -20 -20 -20 -20 -20 -22 -23 -22 -21
-16 -16 -17 -17 -17 -17 -17 -18 -18 -18 -19 -19 -19 -19 -19 -20 -20 -20 -20 -20 -20 -20 -20 -21 -23 -23 -22
-17 -17 -17 -18 -17 -17 -18 -18 -18 -19 -19 -20 -20 -20 -20 -20 -20 -20 -20 -20 -20 -20 -20 -22 -23 -23 -23
-17 -17 -18 -18 -18 -18 -18 -18 -19 -19 -19 -20 -20 -20 -20 -20 -21 -21 -20 -20 -20 -20 -22 -23 -23 -24 -24
-18 -18 -18 -18 -18 -18 -18 -19 -19 -19 -20 -20 -20 -20 -20 -20 -21 -21 -20 -20 -20 -22 -23 -23 -23 -23 -24
Height
5768 5766 5764 5762 5761 5759 5756 5752 5748 5744 5739 5734 5730 5723 5717 5711 5704 5697 5690 5682 5675 5668 5659 5649 5640 5630 5621
5758 5757 5754 5752 5751 5748 5745 5741 5737 5731 5726 5721 5716 5710 5702 5696 5689 5681 5674 5666 5659 5650 5641 5633 5622 5611 5600
5747 5745 5743 5740 5740 5737 5734 5729 5725 5719 5713 5709 5702 5695 5688 5680 5673 5666 5659 5650 5641 5632 5623 5613 5603 5591 5579
5735 5734 5732 5728 5727 5726 5723 5718 5713 5706 5701 5696 5690 5682 5674 5667 5660 5651 5643 5633 5625 5616 5607 5597 5585 5573 5558
5724 5722 5720 5716 5714 5714 5712 5708 5700 5696 5691 5684 5678 5671 5661 5653 5645 5635 5627 5619 5609 5600 5590 5579 5565 5552 5532
5712 5710 5709 5705 5702 5700 5698 5696 5693 5681 5680 5676 5667 5661 5652 5642 5633 5621 5613 5606 5594 5583 5572 5560 5548 5532 5510
5700 5698 5696 5693 5690 5686 5683 5680 5676 5670 5668 5667 5656 5651 5641 5632 5620 5608 5599 5591 5579 5569 5555 5539 5524 5507 5487
5687 5685 5683 5680 5676 5673 5669 5665 5661 5653 5649 5651 5642 5638 5631 5619 5608 5595 5585 5576 5566 5551 5537 5521 5503 5486 5465
5673 5670 5669 5666 5662 5658 5654 5651 5648 5640 5634 5631 5626 5625 5620 5610 5599 5584 5572 5562 5550 5536 5520 5501 5481 5463 5445
5659 5657 5654 5650 5646 5644 5640 5636 5631 5628 5619 5618 5611 5603 5607 5601 5588 5572 5560 5548 5536 5522 5504 5483 5460 5441 5429
5645 5643 5639 5634 5631 5629 5625 5621 5616 5611 5604 5600 5596 5587 5580 5577 5576 5561 5548 5537 5523 5511 5494 5469 5446 5422 5412
5630 5626 5623 5621 5619 5615 5610 5606 5600 5597 5589 5583 5578 5570 5563 5558 5553 5548 5536 5523 5505 5493 5478 5457 5433 5412 5396
5614 5612 5610 5607 5604 5600 5596 5593 5585 5579 5574 5568 5562 5556 5546 5539 5534 5524 5514 5518 5497 5477 5462 5439 5414 5398 5390
5600 5599 5596 5593 5590 5587 5583 5580 5574 5566 5557 5553 5548 5542 5535 5524 5514 5511 5495 5478 5477 5458 5443 5423 5397 5379 5371
5586 5584 5582 5579 5575 5573 5571 5567 5562 5557 5550 5541 5534 5528 5521 5511 5502 5488 5484 5473 5453 5435 5419 5404 5385 5368 5358
5572 5571 5569 5565 5562 5559 5557 5553 5549 5543 5536 5531 5527 5523 5515 5505 5486 5478 5466 5454 5441 5421 5399 5384 5375 5358 5346
5558 5556 5554 5552 5550 5546 5543 5540 5534 5529 5522 5517 5513 5508 5506 5502 5489 5459 5454 5436 5422 5408 5386 5369 5360 5350 5334
Wind_Speed
46 48 46 46 46 46 47 48 49 52 54 56 59 60 63 64 63 68 68 68 69 70 70 71 71 73 76
48 49 49 49 48 47 49 51 52 54 56 58 61 63 64 64 68 69 68 68 69 70 70 71 71 77 83
50 50 51 52 50 49 50 53 54 56 58 60 62 64 65 68 70 69 68 70 70 69 68 69 75 83 91
51 51 53 54 53 51 52 55 56 59 60 59 63 62 65 69 69 67 67 68 67 67 69 74 81 89 95
51 53 53 55 56 54 54 55 56 58 60 61 62 62 67 68 66 64 65 64 65 67 72 79 87 91 97
53 53 55 57 57 57 57 58 56 60 61 59 60 62 65 63 63 61 63 62 64 70 77 84 89 93 101
53 56 57 58 58 59 59 60 59 62 64 59 61 63 62 62 61 62 64 64 66 73 81 88 93 98 103
55 55 58 58 60 60 60 60 61 63 65 63 62 63 61 61 61 61 63 63 69 77 84 89 95 98 100
56 59 59 59 61 63 62 62 63 63 63 64 62 61 58 59 59 61 62 66 71 77 85 95 96 98 95
56 58 58 61 65 63 63 65 65 62 64 63 63 66 62 58 58 60 62 68 73 80 88 95 93 93 90
55 58 62 64 64 64 65 65 62 62 65 63 64 67 65 62 56 55 61 67 74 80 88 93 90 92 81
59 61 63 65 66 67 65 62 62 64 64 66 67 66 65 63 59 56 62 69 77 84 90 90 85 89 68
62 62 64 66 67 64 62 60 62 65 67 69 68 64 63 64 59 62 67 65 77 84 90 85 87 72 60
65 64 64 63 62 60 59 61 61 66 69 67 63 62 62 61 63 62 71 80 83 86 93 84 83 70 61
62 62 60 59 59 59 59 61 62 64 64 62 62 60 60 59 63 70 72 79 86 91 91 82 72 64 57
59 58 57 58 56 57 60 61 63 65 62 61 58 55 53 56 69 71 78 83 88 91 87 83 64 56 59
56 56 57 57 57 59 60 62 62 63 63 61 57 54 49 50 60 76 80 85 90 85 86 78 63 56 64
Wind_Direction
279 282 284 286 289 292 294 295 299 302 304 306 307 309 310 309 308 308 309 309 309 309 311 310 310 308 309
278 281 282 285 288 291 293 296 299 301 304 307 308 309 309 307 307 309 309 309 310 310 312 310 309 310 311
277 279 281 284 287 290 293 296 298 300 304 305 308 308 307 307 308 309 309 309 312 312 311 310 311 313 314
276 278 280 284 287 290 293 296 299 300 302 305 306 305 305 305 308 309 309 310 312 311 312 313 314 315 315
276 277 280 284 286 290 291 295 299 299 303 303 305 303 306 307 308 309 309 311 310 311 313 314 316 317 315
275 278 280 283 287 290 293 296 296 298 302 301 302 304 307 307 308 307 309 311 311 313 315 315 316 319 319
278 278 279 283 287 290 292 294 296 298 301 303 302 305 307 308 309 308 309 312 312 313 314 317 320 322 321
275 277 281 283 286 289 292 295 298 299 301 303 303 306 309 310 310 309 308 311 314 316 318 321 323 323 320
274 277 281 284 287 290 293 296 299 298 298 302 303 306 308 308 310 308 310 313 316 318 321 325 323 322 321
276 279 282 285 287 290 295 298 298 296 300 302 304 306 308 306 310 312 312 314 316 319 326 325 321 320 323
277 280 283 283 287 292 295 297 296 300 303 305 307 307 308 311 315 311 313 315 318 324 328 326 322 320 321
278 278 280 284 290 294 295 296 297 300 302 305 306 306 309 314 316 313 315 318 322 328 331 327 322 322 319
274 278 284 289 291 294 295 294 300 300 301 304 306 309 313 315 314 314 316 319 324 328 331 328 324 321 319
282 286 287 288 291 292 291 297 299 300 302 304 308 311 312 312 313 316 319 323 328 327 330 330 327 322 321
280 281 286 288 286 289 292 295 296 298 301 305 309 311 312 312 315 315 320 325 326 329 333 332 327 322 319
279 281 282 283 287 289 292 294 296 299 300 304 306 307 309 313 314 315 322 325 329 331 330 330 327 321 321
276 278 280 284 285 289 290 294 295 298 301 303 304 305 307 313 317 317 323 326 330 329 330 331 327 327 327